This demonstration page uses our WeatherBlox Daily Observations layout. Learn more.

Left ArrowRight Arrow

39.95238, -75.16362

Hourly Observations for January 9, 2022

Temp ( °F °C ) Dew Point ( °F °C ) Humidity (%) Winds ( mph kmh ) Pressure ( in mb ) Visibility ( mi km ) Precip ( " mm )
12:54 am 00:54 Clear 29 -1.7 16 -8.9 58 58 S 9 15 30.52 1034 10 16 0.00 0.00
1:54 am 01:54 Clear 29 -1.7 17 -8.3 61 61 SSW 7 11 30.53 1034 10 16 0.00 0.00
2:54 am 02:54 Partly Cloudy 29 -1.7 18 -7.8 63 63 SW 5 7 30.49 1033 10 16 0.00 0.00
3:54 am 03:54 Mostly Cloudy 30 -1.1 20 -6.7 66 66 Calm 30.45 1031 10 16 0.00 0.00
4:54 am 04:54 Mostly Cloudy 31 -0.6 22 -5.6 69 69 SSE 3 6 30.40 1029 10 16 0.00 0.00
5:54 am 05:54 Cloudy 35 1.7 25 -3.9 67 67 S 12 19 30.37 1029 10 16 0.00 0.00
6:54 am 06:54 Cloudy 36 2.2 25 -3.9 64 64 S 12 19 30.33 1027 10 16 0.00 0.00
7:54 am 07:54 Mostly Cloudy 37 2.8 25 -3.9 62 62 SSW 12 19 30.30 1026 10 16 0.00 0.00
8:54 am 08:54 Mostly Cloudy 39 3.9 24 -4.4 55 55 SSW 16 26 30.30 1026 10 16 0.00 0.00
9:54 am 09:54 Cloudy 39 3.9 26 -3.3 60 60 SSW 17 28 30.29 1026 10 16 0.00 0.00
10:20 am 10:20 Cloudy with Light Rain 38 3.3 28 -2.2 68 68 SW 15 24 30.30 1026 10 16 0.00 0.00
10:54 am 10:54 Cloudy 38 3.3 28 -2.2 68 68 SSW 13 20 30.26 1025 10 16 0.00 0.00
11:54 am 11:54 Cloudy 38 3.3 30 -1.1 73 73 WSW 10 17 30.21 1023 10 16 0.00 0.00
12:54 pm 12:54 Cloudy with Light Rain 39 3.9 31 -0.6 73 73 SSW 9 15 30.14 1021 9 14 0.01 0.25
1:12 pm 13:12 Cloudy with Light Rain 40 4.4 32 0 73 73 SW 10 17 30.14 1021 10 16 0.00 0.00
1:54 pm 13:54 Cloudy with Light Rain 40 4.4 33 0.6 77 77 SW 10 17 30.11 1020 10 16 0.02 0.51
2:40 pm 14:40 Cloudy with Light Rain 42 5.6 35 1.7 76 76 SW 16 26 30.07 1018 10 16 0.00 0.00
2:54 pm 14:54 Cloudy with Light Rain 43 6.1 35 1.7 74 74 SW 16 26 30.07 1018 10 16 0.00 0.00
3:54 pm 15:54 Cloudy with Light Rain 43 6.1 37 2.8 80 80 SW 16 26 30.06 1018 10 16 0.01 0.25
4:26 pm 16:26 Cloudy with Light Rain 42 5.6 37 2.8 82 82 SW 13 20 30.05 1018 10 16 0.00 0.00
4:54 pm 16:54 Cloudy 42 5.6 37 2.8 82 82 SW 14 22 30.05 1018 10 16 0.01 0.25
5:34 pm 17:34 Cloudy with Light Rain 42 5.6 38 3.3 85 85 SW 13 20 30.04 1017 10 16 0.02 0.51
5:54 pm 17:54 Cloudy with Light Rain 42 5.6 38 3.3 85 85 SW 13 20 30.03 1017 10 16 0.03 0.76
6:13 pm 18:13 Cloudy with Light Rain 42 5.6 39 3.9 89 89 SW 13 20 30.04 1017 7 11 0.02 0.51
6:54 pm 18:54 Cloudy with Light Rain 43 6.1 40 4.4 89 89 SW 10 17 30.03 1017 7 11 0.04 1.02
7:54 pm 19:54 Cloudy with Light Rain 43 6.1 40 4.4 89 89 WSW 10 17 30.02 1017 7 11 0.03 0.76
8:54 pm 20:54 Cloudy with Light Rain 43 6.1 41 5 93 93 WSW 8 13 30.02 1017 7 11 0.04 1.02
9:16 pm 21:16 Cloudy 43 6.1 40 4.4 89 89 WSW 8 13 30.02 1017 10 16 0.00 0.00
9:48 pm 21:48 Cloudy 43 6 39 4 87 87 WSW 9 15 30.02 1017 10 16 0.00 0.00
9:54 pm 21:54 Cloudy 43 6.1 40 4.4 89 89 WSW 9 15 30.01 1016 10 16 0.00 0.00
10:01 pm 22:01 Cloudy 43 6.1 40 4.4 89 89 W 9 15 30.02 1017 7 11 0.00 0.00
10:54 pm 22:54 Cloudy 43 6.1 39 3.9 86 86 W 13 20 30.04 1017 9 14 0.00 0.00
11:22 pm 23:22 Cloudy 43 6.1 35 1.7 74 74 NW 15 24 30.04 1017 10 16 0.00 0.00
11:54 pm 23:54 Cloudy 42 5.6 32 0 68 68 NW 16 26 30.05 1018 10 16 0.00 0.00

Powered by AerisWeather